Location: Unspecified
(0.0000°N, 0.0000°E)
Time: 06:27:44

Vanguard 2 Rocket - Pass Details

Date: 17 December 2017
Orbit: 554 x 3327 km, 32.9° (Epoch: 21 March)

Event Time Altitude Azimuth Distance (km) Brightness Sun altitude
Rises 18:47:08 0° 305° (NW) 4,619 11.0 -11.6°
Reaches altitude 10° 18:52:36 10° 332° (NNW) 4,245 10.4 -12.9°
Maximum altitude 18:57:38 13° 357° (N) 4,485 10.2 -14.0°
Drops below altitude 10° 19:03:44 10° 21° (NNE) 5,293 10.4 -15.4°
Enters shadow 19:06:55 - 31° (NNE) 5,832 10.5 -16.1°
Sets 19:12:52 0° 45° (NE) 6,912 - -17.5°
